Location: Unspecified
(0.0000°N, 0.0000°E)
Time: 13:10:34
(UTC+00:00)

FORMOSAT 3A - Pass Details

Date: 22 May 2026
Orbit: 751 x 823 km, 72.0° (Epoch: 5 June)

Event Time Altitude Azimuth Distance (km) Brightness Sun altitude
Rises 19:59:59 0° 347° (NNW) 3,312 10.8 -28.7°
Reaches altitude 10° 20:02:25 10° 348° (NNW) 2,375 9.9 -29.2°
Enters shadow 20:06:17 48° 355° (N) 1,031 7.7 -30.1°
